Vertical_Velocity
0 0 0 -1 -1 -2 -1 -1 -1 -1 -2 -1 -0 -0 -0 -1 -1 -2 -0 1 0 -0 -1 -1 -1 -1 -1 -1 -0 -0 -1 -1 -2 -2 -2 -3 -2 -2 -2 -3 -4 -3 -2
-0 -1 -1 -0 -0 0 -1 -1 -1 -1 -0 -0 1 1 -1 -2 1 -2 -0 -0 -1 -1 1 0 -1 -1 -1 -0 -1 -1 -2 -3 -4 -3 -2 -2 -3 -3 -3 -3 -3 -3 -2
-1 -1 -2 -0 -0 -0 0 1 1 1 1 1 -0 -1 -1 -1 -1 1 -1 -0 0 0 -1 -1 -0 -1 -2 -2 -3 -2 -2 -2 -2 -2 -2 -3 -2 -2 -2 -2 -2 -3 -2
-1 -1 0 -0 -1 -1 -0 -0 -0 -0 -1 -1 -1 0 1 0 -1 -1 -1 -1 -1 -2 -0 -1 -2 -1 -2 -3 -3 -2 -1 -1 -2 -2 -3 -3 -2 -2 -2 -2 -2 -3 -3
-1 -1 1 -0 -0 -1 -1 -1 -1 -0 1 0 0 -0 -1 -1 -1 -1 -1 -2 -1 0 -1 -1 -2 -2 -2 -2 -1 -1 -2 -2 -1 -2 -2 -3 -2 -2 -2 -2 -2 -1 -1
-0 -1 1 0 -0 -1 -1 -0 -0 -0 -1 -0 -0 -0 -0 -1 -1 -1 -0 0 -0 -1 -1 -1 2 1 -2 -2 -2 -1 -1 -2 -2 -2 -3 -1 -1 -1 -1 -1 -2 -2 -1
-2 -0 -1 -1 -0 -1 -1 -0 -1 -1 -1 -1 0 -0 -1 -0 -1 -1 0 0 -1 -1 -0 -1 -2 -3 -3 -3 -3 -2 -1 -2 -1 -1 -1 -1 -2 -3 -3 -3 -3 -4 -4
-1 -1 -1 -0 -0 -1 -1 -0 -0 -0 0 -1 -1 -0 -1 -1 -1 -1 -1 -1 -1 1 -1 -1 -1 -1 -1 -2 -1 -2 -2 -2 -2 -3 -2 -4 -3 -3 -3 -4 -2 -2 -0
-1 -0 -1 -1 -1 -1 -0 -0 0 0 -1 -1 -1 -1 -2 1 -0 -0 0 -0 -1 -1 -1 -1 -0 -2 -2 -3 -1 -1 -2 -3 -3 -3 -3 -3 -2 -3 -4 -2 -2 -2 -5
1 -1 -2 -1 -1 -0 -1 -1 -1 -1 -0 -2 -1 -1 -1 -1 -1 -0 -0 -0 -1 -2 -3 -2 -0 1 -2 -3 -1 -6 -2 -2 -2 -3 -2 -2 -2 -1 -2 -2 -4 -6 -5
0 -1 -1 -0 -1 -0 -0 -1 -1 -0 1 0 -0 -1 -1 -0 -2 -2 1 -0 -1 1 0 -2 -0 -2 -1 -3 1 -2 -2 -2 -2 -3 -2 -1 -2 -4 -3 -5 -6 -5 -5
1 -0 -1 -1 -0 0 -0 -1 -1 -1 0 0 -0 -0 -0 -1 -1 -1 -2 -2 -3 -1 -2 -1 -2 -2 -1 -2 -2 -2 -2 -2 -1 -2 -2 -3 -4 -4 -4 -5 -3 -3 -4
1 2 -1 -2 -1 -1 -0 -1 0 -0 -1 -1 -1 -1 -1 -0 -0 -0 -1 -0 -1 -1 0 2 -2 1 -1 -1 -1 -2 -2 -1 -1 -2 -2 -4 -3 -5 -4 -3 -1 -3 -1
-0 -1 -2 -2 -1 -0 -0 0 0 -0 -1 -1 -1 -0 1 -0 -1 -1 -0 -1 -2 -2 -2 -2 -3 -4 -2 -2 -3 -2 -1 -2 -4 -5 -3 -5 -5 -3 -4 -2 -2 -4 -6
-0 1 -1 -0 0 -1 -1 -0 0 0 0 0 0 0 -1 -1 -0 0 0 -0 1 -0 -3 4 -3 -2 -4 -3 -1 -2 -2 -2 -3 -1 -2 -3 -3 -2 -4 -4 -3 -4 -5
-1 1 -1 0 1 1 -0 1 -1 -1 1 0 0 1 -0 -1 -0 0 -2 -0 -0 -0 -1 -1 -2 -2 -2 -1 -1 -2 -2 -2 -4 -3 -2 -4 -4 -3 -4 -3 -5 -6 -6
-1 3 3 -2 1 0 -1 -0 -1 0 -3 0 3 0 -0 2 1 -0 -1 -0 -0 -1 -1 1 -2 -2 -2 -1 -2 -1 -1 -1 -1 2 -2 -2 -2 -4 -1 -4 -4 -3 -4
-2 1 -0 -2 2 -0 -1 -2 -2 -1 -1 -4 -5 0 1 1 2 -3 -9 -3 -3 1 1 2 0 -3 -1 -0 -1 -0 -1 -2 -5 2 -4 -4 -3 -4 -2 -5 -6 -6 -2
-6 0 -1 -1 2 -0 -2 -2 1 1 -0 2 -1 -6 -3 -1 -1 -2 1 -2 4 0 -2 -0 0 -4 -3 -2 1 1 -2 3 -8 5 -3 -3 -5 -6 -5 -7 -5 -9 -8
-5 1 0 1 -0 0 -1 1 2 -1 1 -2 -2 -3 -2 -2 -2 -2 -1 -4 2 -2 -1 -1 -0 -1 -1 -1 -5 -5 7 1 -4 7 -8 -6 -10 -4 -5 -2 -4 -9 -4
-0 4 -1 1 -1 -1 -3 1 -1 -3 -1 -1 -0 3 1 1 -1 0 -0 1 -5 -2 1 -2 -2 -1 -4 1 -2 -4 -4 -1 2 -3 3 -6 -3 -7 -5 -3 -1 -1 2
1 3 -0 -0 -1 -2 0 -3 -5 -2 -2 -2 -2 3 -2 -5 1 1 2 3 -2 -3 -2 -1 -5 -1 -4 -4 -0 -3 -5 -5 -1 -6 4 -7 -7 -7 -4 -4 -8 -2 -1
5 2 3 3 1 -2 0 -0 -1 -3 6 2 2 0 5 1 2 4 2 4 1 -6 -4 -2 -2 -2 -0 -0 -1 -0 -3 -1 -7 -6 0 -1 -1 -6 -4 -4 -4 -0 1
1 -2 6 -3 -2 5 6 1 5 1 7 -3 3 3 11 2 3 3 5 -1 -1 -2 1 -1 -1 1 -3 -2 -2 -3 -3 2 -5 -8 -8 -1 7 -2 -6 -5 -3 -1 -1
5 2 1 -2 -4 -13 29 -5 -1 12 12 9 5 -2 8 7 2 2 7 1 1 -1 1 -4 -1 -1 -3 -2 -4 -3 -1 -3 8 -7 2 -5 -2 8 -2 -6 -4 -3 -4
4 2 -8 -1 -17 0 4 -1 11 30 4 -2 15 4 -1 5 10 1 1 1 -4 -1 -2 -4 0 -0 -0 -3 -4 -7 -5 -2 -10 12 -3 -2 2 -11 10 -4 -2 -3 -2
Height
3182 3184 3186 3187 3189 3191 3192 3194 3195 3196 3196 3197 3198 3198 3198 3198 3199 3199 3198 3197 3197 3196 3196 3195 3194 3193 3191 3190 3189 3186 3184 3182 3180 3177 3174 3171 3168 3165 3161 3157 3153 3148 3143
3183 3184 3186 3188 3189 3190 3192 3193 3194 3195 3196 3197 3198 3198 3198 3198 3199 3198 3197 3197 3197 3196 3195 3194 3193 3192 3190 3188 3186 3184 3182 3179 3177 3174 3171 3167 3163 3160 3156 3152 3148 3143 3138
3183 3184 3186 3187 3189 3190 3192 3193 3194 3195 3196 3196 3197 3198 3198 3198 3197 3198 3197 3197 3196 3195 3194 3193 3192 3190 3188 3186 3185 3182 3179 3176 3174 3170 3166 3162 3159 3155 3151 3146 3142 3137 3132
3182 3184 3186 3187 3189 3190 3191 3192 3193 3194 3195 3196 3197 3197 3197 3197 3197 3197 3197 3196 3195 3194 3193 3191 3190 3188 3186 3185 3182 3179 3176 3173 3169 3166 3162 3158 3154 3149 3145 3140 3135 3129 3124
3181 3183 3185 3186 3188 3189 3190 3191 3193 3194 3194 3195 3195 3196 3196 3196 3196 3195 3195 3194 3193 3192 3191 3190 3188 3186 3184 3182 3179 3175 3171 3168 3164 3160 3156 3152 3148 3143 3138 3133 3127 3121 3116
3179 3181 3183 3185 3186 3188 3189 3190 3191 3192 3193 3194 3194 3194 3194 3194 3194 3193 3193 3192 3191 3190 3189 3188 3186 3184 3182 3179 3175 3171 3167 3163 3160 3155 3151 3146 3142 3137 3131 3125 3120 3114 3108
3178 3180 3182 3184 3185 3186 3187 3189 3190 3191 3191 3192 3193 3193 3193 3192 3192 3191 3191 3190 3189 3188 3187 3184 3182 3180 3178 3175 3171 3167 3163 3159 3155 3150 3145 3140 3135 3130 3124 3118 3112 3106 3100
3176 3179 3180 3182 3183 3184 3186 3187 3188 3189 3190 3190 3190 3190 3190 3191 3189 3189 3188 3187 3186 3185 3183 3181 3179 3177 3174 3171 3167 3163 3158 3154 3149 3144 3139 3134 3129 3123 3117 3112 3106 3099 3093
3174 3176 3178 3180 3181 3182 3183 3185 3186 3187 3187 3187 3187 3188 3188 3188 3187 3186 3185 3184 3183 3181 3180 3178 3176 3172 3170 3167 3163 3158 3153 3149 3144 3138 3133 3127 3122 3117 3111 3104 3098 3091 3085
3172 3174 3175 3177 3178 3180 3181 3182 3183 3183 3184 3184 3184 3184 3185 3185 3184 3183 3182 3181 3180 3178 3175 3173 3172 3169 3165 3162 3158 3153 3148 3143 3138 3133 3127 3121 3115 3109 3102 3096 3090 3081 3073
3169 3171 3172 3173 3175 3177 3178 3178 3179 3179 3180 3181 3181 3181 3181 3180 3179 3179 3179 3178 3176 3174 3171 3169 3167 3163 3161 3157 3153 3148 3143 3138 3133 3128 3120 3113 3107 3101 3094 3087 3079 3070 3061
3166 3167 3168 3170 3171 3173 3174 3175 3176 3176 3176 3177 3177 3177 3177 3177 3176 3175 3174 3173 3171 3169 3167 3164 3162 3159 3156 3152 3148 3143 3138 3132 3127 3120 3113 3106 3099 3092 3085 3077 3069 3058 3048
3162 3164 3165 3167 3168 3169 3170 3171 3172 3172 3173 3173 3173 3174 3173 3173 3172 3172 3171 3170 3168 3166 3163 3160 3156 3154 3151 3147 3142 3138 3132 3126 3119 3112 3104 3097 3090 3083 3076 3067 3058 3047 3035
3159 3160 3161 3162 3163 3165 3166 3166 3167 3168 3169 3169 3169 3169 3169 3169 3168 3168 3167 3166 3165 3162 3159 3155 3151 3148 3145 3140 3135 3130 3125 3118 3111 3105 3098 3091 3084 3076 3068 3058 3047 3035 3024
3155 3156 3157 3158 3159 3160 3161 3162 3162 3163 3164 3164 3165 3165 3165 3165 3164 3164 3163 3162 3160 3157 3154 3151 3146 3142 3137 3132 3127 3122 3116 3110 3103 3099 3092 3085 3077 3068 3059 3049 3037 3026 3015
3150 3151 3152 3153 3154 3155 3155 3156 3157 3158 3158 3159 3160 3160 3160 3159 3159 3158 3157 3156 3154 3152 3149 3145 3140 3135 3130 3126 3120 3114 3109 3104 3097 3092 3084 3077 3068 3059 3050 3039 3027 3016 3006
3144 3146 3146 3147 3148 3149 3150 3150 3151 3152 3153 3153 3154 3154 3153 3153 3152 3152 3151 3149 3148 3145 3143 3140 3134 3129 3124 3120 3115 3109 3104 3099 3092 3087 3078 3071 3061 3052 3042 3030 3019 3009 3001
3137 3139 3140 3140 3142 3142 3143 3144 3144 3145 3145 3147 3147 3147 3147 3147 3147 3146 3144 3142 3141 3138 3136 3133 3129 3124 3119 3114 3109 3104 3099 3094 3086 3082 3072 3064 3053 3044 3032 3022 3011 3004 2997
3129 3131 3132 3133 3135 3135 3136 3136 3137 3138 3138 3138 3140 3140 3140 3141 3140 3138 3137 3135 3133 3131 3128 3125 3121 3116 3111 3107 3103 3097 3092 3087 3079 3074 3063 3055 3045 3035 3024 3014 3008 3001 2995
3120 3122 3124 3126 3127 3127 3127 3128 3129 3130 3130 3131 3132 3132 3132 3133 3131 3130 3129 3128 3125 3123 3121 3117 3112 3108 3103 3099 3094 3088 3086 3080 3072 3065 3055 3047 3037 3025 3017 3010 3004 3000 2996
3111 3114 3115 3117 3117 3118 3119 3121 3122 3123 3124 3124 3124 3124 3124 3123 3123 3121 3120 3119 3117 3115 3112 3108 3105 3100 3094 3090 3086 3081 3076 3070 3063 3056 3049 3039 3029 3019 3014 3010 3005 3000 2994
3103 3106 3106 3107 3108 3110 3111 3113 3114 3116 3116 3116 3116 3116 3116 3115 3114 3113 3111 3110 3109 3106 3104 3101 3096 3092 3086 3082 3078 3072 3068 3063 3056 3049 3041 3031 3021 3012 3008 3005 3002 2999 2993
3094 3096 3098 3099 3100 3102 3104 3106 3107 3106 3106 3106 3107 3107 3106 3105 3105 3103 3102 3100 3100 3098 3096 3092 3088 3084 3080 3075 3070 3066 3062 3056 3049 3042 3035 3026 3017 3010 3007 3004 3001 2998 2993
3084 3086 3090 3090 3092 3094 3094 3096 3096 3097 3097 3096 3097 3097 3096 3095 3095 3094 3092 3092 3091 3090 3087 3084 3080 3076 3072 3068 3065 3060 3054 3049 3043 3036 3028 3022 3014 3010 3004 3003 2999 2996 2992
3074 3075 3080 3081 3082 3082 3082 3088 3086 3085 3085 3084 3089 3089 3086 3085 3085 3084 3083 3083 3083 3081 3079 3076 3072 3068 3065 3062 3058 3053 3048 3043 3037 3029 3022 3017 3010 3009 3003 3000 2998 2994 2991
3064 3065 3068 3071 3073 3073 3076 3075 3078 3077 3080 3078 3079 3078 3078 3077 3076 3076 3076 3076 3075 3074 3071 3067 3064 3062 3059 3055 3051 3046 3041 3036 3029 3024 3017 3014 3009 3004 3003 2998 2994 2992 2989